• In Uzbekistan
  • List of Countries
  • For 7 days
  • Water Temperature
  • Satellite Maps
  • Weather Map
  • Weather Widgets
  • user-avatar
    Login

    Hourly Weather Buenos Aires

    Today, 30 May, Tuesday

    Time Temperature Precipitation Wind Pressure Humidity
    00:00 +8°C° 0 mm 2 mps 768 mmHg 90%
    01:00 +7°C° 0 mm 2 mps 768 mmHg 90%
    02:00 +7°C° 0 mm 2 mps 768 mmHg 89%
    03:00 +7°C° 0 mm 2 mps 768 mmHg 90%
    04:00 +6°C° 0 mm 2 mps 768 mmHg 90%
    05:00 +6°C° 0 mm 2 mps 768 mmHg 90%
    06:00 +7°C° 0 mm 2 mps 768 mmHg 87%
    07:00 +8°C° 0 mm 2 mps 768 mmHg 85%
    08:00 +8°C° 0 mm 3 mps 769 mmHg 83%
    09:00 +10°C° 0 mm 3 mps 769 mmHg 76%
    10:00 +12°C° 0 mm 3 mps 769 mmHg 69%
    11:00 +14°C° 0 mm 3 mps 769 mmHg 62%
    12:00 +15°C° 0 mm 2 mps 769 mmHg 60%
    13:00 +16°C° 0 mm 2 mps 768 mmHg 58%
    14:00 +16°C° 0 mm 2 mps 768 mmHg 56%
    15:00 +14°C° 0 mm 2 mps 768 mmHg 64%
    16:00 +12°C° 0 mm 3 mps 768 mmHg 72%
    17:00 +10°C° 0 mm 3 mps 768 mmHg 79%
    18:00 +9°C° 0 mm 3 mps 768 mmHg 82%
    19:00 +9°C° 0 mm 3 mps 768 mmHg 85%
    20:00 +8°C° 0 mm 3 mps 768 mmHg 87%
    21:00 +8°C° 0 mm 3 mps 768 mmHg 89%
    22:00 +7°C° 0 mm 3 mps 769 mmHg 90%
    23:00 +7°C° 0 mm 3 mps 769 mmHg 92%

    Tomorrow, 31 May, Wednesday

    Time Temperature Precipitation Wind Pressure Humidity
    00:00 +7°C° 0 mm 3 mps 769 mmHg 92%
    01:00 +5°C° 0 mm 3 mps 769 mmHg 92%
    02:00 +5°C° 0 mm 3 mps 769 mmHg 93%
    03:00 +5°C° 0 mm 3 mps 769 mmHg 93%
    04:00 +6°C° 0 mm 2 mps 768 mmHg 92%
    05:00 +6°C° 0 mm 2 mps 768 mmHg 92%
    06:00 +6°C° 0 mm 2 mps 768 mmHg 90%
    07:00 +7°C° 0 mm 3 mps 768 mmHg 88%
    08:00 +7°C° 0 mm 3 mps 769 mmHg 86%
    09:00 +9°C° 0 mm 2 mps 769 mmHg 79%
    10:00 +12°C° 0 mm 2 mps 769 mmHg 72%
    11:00 +14°C° 0 mm 1 mps 769 mmHg 65%
    12:00 +14°C° 0 mm 1 mps 768 mmHg 62%
    13:00 +14°C° 0 mm 1 mps 768 mmHg 59%
    14:00 +15°C° 0 mm 2 mps 767 mmHg 57%
    15:00 +13°C° 0 mm 2 mps 767 mmHg 63%
    16:00 +12°C° 0 mm 2 mps 766 mmHg 70%
    17:00 +9°C° 0 mm 2 mps 766 mmHg 76%
    18:00 +8°C° 0 mm 2 mps 766 mmHg 79%
    19:00 +8°C° 0 mm 1 mps 766 mmHg 83%
    20:00 +7°C° 0 mm 1 mps 767 mmHg 87%
    21:00 +8°C° 0 mm 1 mps 767 mmHg 86%
    22:00 +7°C° 0 mm 2 mps 767 mmHg 86%
    23:00 +7°C° 0 mm 2 mps 767 mmHg 86%

    Day after tomorrow, 1 June, Thursday

    Time Temperature Precipitation Wind Pressure Humidity
    00:00 +6°C° 0 mm 2 mps 766 mmHg 87%
    01:00 +6°C° 0 mm 2 mps 766 mmHg 88%
    02:00 +5°C° 0 mm 2 mps 766 mmHg 90%
    03:00 +6°C° 0 mm 1 mps 766 mmHg 90%
    04:00 +6°C° 0 mm 1 mps 766 mmHg 91%
    05:00 +6°C° 0 mm 1 mps 766 mmHg 91%
    06:00 +7°C° 0 mm 1 mps 766 mmHg 91%
    07:00 +8°C° 0 mm 1 mps 766 mmHg 90%
    08:00 +9°C° 0 mm 1 mps 766 mmHg 90%
    09:00 +11°C° 0 mm 1 mps 766 mmHg 81%
    10:00 +13°C° 0 mm 1 mps 766 mmHg 73%
    11:00 +15°C° 0 mm 1 mps 766 mmHg 65%
    12:00 +15°C° 0 mm 1 mps 766 mmHg 62%
    13:00 +16°C° 0 mm 1 mps 765 mmHg 59%
    14:00 +16°C° 0 mm 1 mps 765 mmHg 56%
    15:00 +14°C° 0 mm 1 mps 765 mmHg 65%
    16:00 +12°C° 0 mm 1 mps 764 mmHg 74%
    17:00 +8°C° 0 mm 0 mps 764 mmHg 84%
    18:00 +9°C° 0 mm 1 mps 765 mmHg 84%
    19:00 +8°C° 0 mm 1 mps 765 mmHg 85%
    20:00 +8°C° 0 mm 1 mps 765 mmHg 85%
    21:00 +8°C° 0 mm 1 mps 765 mmHg 86%
    22:00 +8°C° 0 mm 1 mps 765 mmHg 86%
    23:00 +7°C° 0 mm 2 mps 765 mmHg 86%

    2 June, Friday

    Time Temperature Precipitation Wind Pressure Humidity
    00:00 +7°C° 0 mm 2 mps 765 mmHg 86%
    01:00 +7°C° 0 mm 2 mps 765 mmHg 87%
    02:00 +7°C° 0 mm 2 mps 765 mmHg 87%
    03:00 +7°C° 0 mm 2 mps 765 mmHg 88%
    04:00 +6°C° 0 mm 2 mps 764 mmHg 88%
    05:00 +6°C° 0 mm 2 mps 764 mmHg 89%
    06:00 +7°C° 0 mm 2 mps 765 mmHg 88%
    07:00 +8°C° 0 mm 2 mps 765 mmHg 87%
    08:00 +9°C° 0 mm 2 mps 765 mmHg 86%
    09:00 +11°C° 0 mm 3 mps 765 mmHg 79%
    10:00 +13°C° 0 mm 3 mps 765 mmHg 72%
    11:00 +16°C° 0 mm 3 mps 765 mmHg 65%
    12:00 +16°C° 0 mm 3 mps 764 mmHg 64%
    13:00 +16°C° 0 mm 3 mps 763 mmHg 64%
    14:00 +17°C° 0 mm 4 mps 763 mmHg 63%
    15:00 +14°C° 0 mm 4 mps 762 mmHg 70%
    16:00 +13°C° 0 mm 3 mps 762 mmHg 78%
    17:00 +11°C° 0 mm 3 mps 762 mmHg 86%
    18:00 +11°C° 0 mm 4 mps 762 mmHg 88%
    19:00 +11°C° 0 mm 4 mps 762 mmHg 89%
    20:00 +9°C° 0 mm 5 mps 762 mmHg 91%
    21:00 +9°C° 0 mm 5 mps 762 mmHg 92%
    22:00 +9°C° 0 mm 5 mps 762 mmHg 93%
    23:00 +9°C° 0 mm 5 mps 762 mmHg 94%

    3 June, Saturday

    Time Temperature Precipitation Wind Pressure Humidity
    00:00 +9°C° 0 mm 5 mps 761 mmHg 94%
    01:00 +9°C° 0 mm 5 mps 761 mmHg 94%
    02:00 +9°C° 0 mm 5 mps 761 mmHg 94%
    03:00 +9°C° 0 mm 5 mps 761 mmHg 95%
    04:00 +9°C° 0 mm 5 mps 761 mmHg 95%
    05:00 +10°C° 0 mm 4 mps 761 mmHg 96%
    06:00 +10°C° 0 mm 4 mps 761 mmHg 95%
    07:00 +10°C° 0 mm 4 mps 761 mmHg 95%
    08:00 +10°C° 0 mm 4 mps 761 mmHg 95%
    09:00 +12°C° 0 mm 5 mps 761 mmHg 88%
    10:00 +13°C° 0 mm 5 mps 761 mmHg 81%
    11:00 +15°C° 0 mm 5 mps 761 mmHg 74%
    12:00 +15°C° 0 mm 4 mps 761 mmHg 72%
    13:00 +17°C° 0 mm 4 mps 760 mmHg 70%
    14:00 +17°C° 0 mm 3 mps 760 mmHg 67%
    15:00 +16°C° 0 mm 3 mps 760 mmHg 73%
    16:00 +14°C° 0 mm 3 mps 760 mmHg 78%
    17:00 +14°C° 0 mm 2 mps 760 mmHg 83%
    18:00 +12°C° 0 mm 3 mps 761 mmHg 85%
    19:00 +12°C° 0 mm 3 mps 761 mmHg 87%
    20:00 +12°C° 0 mm 3 mps 762 mmHg 89%
    21:00 +11°C° 0 mm 3 mps 762 mmHg 90%
    22:00 +10°C° 0 mm 3 mps 762 mmHg 91%
    23:00 +10°C° 0 mm 3 mps 763 mmHg 93%

    4 June, Sunday

    Time Temperature Precipitation Wind Pressure Humidity
    00:00 +9°C° 0 mm 3 mps 763 mmHg 92%
    01:00 +8°C° 0 mm 3 mps 763 mmHg 91%
    02:00 +7°C° 0 mm 4 mps 763 mmHg 90%
    03:00 +6°C° 0 mm 4 mps 763 mmHg 87%
    04:00 +7°C° 0 mm 3 mps 763 mmHg 85%
    05:00 +5°C° 0 mm 3 mps 763 mmHg 82%
    06:00 +5°C° 0 mm 3 mps 764 mmHg 79%
    07:00 +7°C° 0 mm 3 mps 764 mmHg 76%
    08:00 +7°C° 0 mm 3 mps 765 mmHg 72%
    09:00 +9°C° 0 mm 2 mps 764 mmHg 65%
    10:00 +12°C° 0 mm 2 mps 764 mmHg 57%
    11:00 +14°C° 0 mm 2 mps 764 mmHg 49%
    12:00 +15°C° 0 mm 2 mps 764 mmHg 46%
    13:00 +15°C° 0 mm 1 mps 763 mmHg 44%
    14:00 +16°C° 0 mm 1 mps 763 mmHg 41%
    15:00 +13°C° 0 mm 1 mps 763 mmHg 50%
    16:00 +11°C° 0 mm 1 mps 763 mmHg 59%
    17:00 +8°C° 0 mm 1 mps 763 mmHg 68%
    18:00 +8°C° 0 mm 1 mps 763 mmHg 68%
    19:00 +8°C° 0 mm 1 mps 763 mmHg 67%
    20:00 +8°C° 0 mm 1 mps 763 mmHg 67%
    21:00 +7°C° 0 mm 2 mps 763 mmHg 68%
    22:00 +7°C° 0 mm 2 mps 763 mmHg 69%
    23:00 +6°C° 0 mm 2 mps 763 mmHg 70%
    Show more